SWA4184 KSMF-KSBA

Flight info

Callsign SWA4184
Flight time 1h 2m
Altitude 37000
Route FTHIL3 FRA GVO HABUT
Aircraft B737/M-SDE2E3FGHIRWXY/LB1

Departure

Time 2026-05-04 23:39
Airport Sacramento International Airport (KSMF)

Arrival

Time 2026-05-05 00:41
Airport Santa Barbara Municipal Airport (KSBA)
Time Latitude Longitude Altitude Speed Heading
2026-05-04 23:18 38.69515 -121.59397 22 ft 0 kts 29°
2026-05-04 23:29 38.69504 -121.59404 24 ft 4 kts 22°
2026-05-04 23:29 38.69479 -121.59412 25 ft 4 kts 349°
2026-05-04 23:29 38.69461 -121.59398 22 ft 4 kts 280°
2026-05-04 23:29 38.69460 -121.59392 22 ft 1 kts 270°
2026-05-04 23:32 38.69460 -121.59395 22 ft 3 kts 270°
2026-05-04 23:32 38.69461 -121.59448 22 ft 9 kts 270°
2026-05-04 23:32 38.69461 -121.59549 22 ft 12 kts 270°
2026-05-04 23:33 38.69462 -121.59650 22 ft 11 kts 270°
2026-05-04 23:33 38.69464 -121.59753 22 ft 12 kts 269°
2026-05-04 23:33 38.69479 -121.59854 24 ft 12 kts 318°
2026-05-04 23:33 38.69561 -121.59866 22 ft 12 kts
2026-05-04 23:34 38.69646 -121.59864 23 ft 13 kts
2026-05-04 23:34 38.69746 -121.59863 22 ft 15 kts
2026-05-04 23:34 38.69856 -121.59862 22 ft 16 kts
2026-05-04 23:34 38.69968 -121.59859 22 ft 16 kts
2026-05-04 23:35 38.70075 -121.59857 22 ft 15 kts
2026-05-04 23:35 38.70179 -121.59856 23 ft 15 kts
2026-05-04 23:35 38.70278 -121.59855 23 ft 14 kts
2026-05-04 23:35 38.70373 -121.59853 22 ft 13 kts
2026-05-04 23:36 38.70476 -121.59851 22 ft 17 kts
2026-05-04 23:36 38.70606 -121.59849 22 ft 19 kts
2026-05-04 23:36 38.70699 -121.59858 25 ft 13 kts 331°
2026-05-04 23:36 38.70718 -121.59964 22 ft 12 kts 271°
2026-05-04 23:37 38.70718 -121.59986 22 ft 0 kts 270°
2026-05-04 23:37 38.70718 -121.59989 22 ft 1 kts 270°
2026-05-04 23:37 38.70718 -121.60018 22 ft 7 kts 270°
2026-05-04 23:38 38.70695 -121.60095 24 ft 10 kts 226°
2026-05-04 23:38 38.70608 -121.60111 23 ft 30 kts 181°
2026-05-04 23:38 38.70086 -121.60120 26 ft 118 kts 181°
2026-05-04 23:38 38.69059 -121.60121 332 ft 162 kts 176°
2026-05-04 23:39 38.67952 -121.60060 1398 ft 168 kts 178°
2026-05-04 23:39 38.66770 -121.59604 2160 ft 193 kts 147°
2026-05-04 23:39 38.65902 -121.58224 2968 ft 200 kts 120°
2026-05-04 23:39 38.65268 -121.56692 4085 ft 195 kts 121°
2026-05-04 23:40 38.64564 -121.55075 4598 ft 224 kts 122°
2026-05-04 23:40 38.63722 -121.53205 4898 ft 261 kts 122°
2026-05-04 23:40 38.62763 -121.51146 5717 ft 272 kts 122°
2026-05-04 23:40 38.61770 -121.49061 6777 ft 276 kts 121°
2026-05-04 23:41 38.60748 -121.46961 7820 ft 279 kts 121°
2026-05-04 23:41 38.59702 -121.44851 8857 ft 283 kts 121°
2026-05-04 23:41 38.58636 -121.42727 9902 ft 286 kts 121°
2026-05-04 23:41 38.57538 -121.40557 10617 ft 300 kts 121°
2026-05-04 23:42 38.56346 -121.38216 10900 ft 327 kts 121°
2026-05-04 23:42 38.55080 -121.35745 11673 ft 336 kts 122°
2026-05-04 23:42 38.53787 -121.33239 12617 ft 339 kts 122°
2026-05-04 23:42 38.52479 -121.30710 13612 ft 342 kts 122°
2026-05-04 23:43 38.51174 -121.28191 14505 ft 346 kts 122°
2026-05-04 23:43 38.49836 -121.25612 15385 ft 350 kts 122°
2026-05-04 23:43 38.48485 -121.23013 16359 ft 352 kts 121°
2026-05-04 23:43 38.47125 -121.20395 17320 ft 355 kts 121°
2026-05-04 23:44 38.45748 -121.17750 18253 ft 358 kts 120°
2026-05-04 23:44 38.44364 -121.15091 19056 ft 362 kts 120°
2026-05-04 23:44 38.42966 -121.12408 19834 ft 365 kts 119°
2026-05-04 23:44 38.41550 -121.09692 20609 ft 369 kts 119°
2026-05-04 23:45 38.40121 -121.06955 21387 ft 373 kts 118°
2026-05-04 23:45 38.38674 -121.04184 22170 ft 377 kts 118°
2026-05-04 23:45 38.37233 -121.01429 22911 ft 381 kts 118°
2026-05-04 23:45 38.35736 -120.98568 23637 ft 385 kts 117°
2026-05-04 23:46 38.34266 -120.95761 24248 ft 388 kts 118°
2026-05-04 23:46 38.32753 -120.92876 24908 ft 390 kts 118°
2026-05-04 23:46 38.31242 -120.89999 25530 ft 393 kts 118°
2026-05-04 23:46 38.29712 -120.87088 26116 ft 396 kts 118°
2026-05-04 23:47 38.28173 -120.84161 26704 ft 399 kts 119°
2026-05-04 23:47 38.26621 -120.81211 27283 ft 402 kts 119°
2026-05-04 23:47 38.25057 -120.78243 27857 ft 405 kts 119°
2026-05-04 23:47 38.23483 -120.75259 28411 ft 408 kts 119°
2026-05-04 23:48 38.21896 -120.72251 28951 ft 411 kts 119°
2026-05-04 23:48 38.20296 -120.69222 29482 ft 414 kts 119°
2026-05-04 23:48 38.18684 -120.66172 29987 ft 416 kts 119°
2026-05-04 23:48 38.17062 -120.63108 30395 ft 420 kts 120°
2026-05-04 23:49 38.15418 -120.60003 30714 ft 425 kts 120°
2026-05-04 23:49 38.13755 -120.56866 30988 ft 430 kts 120°
2026-05-04 23:49 38.12074 -120.53697 31279 ft 435 kts 121°
2026-05-04 23:49 38.10395 -120.50538 31589 ft 438 kts 121°
2026-05-04 23:50 38.08685 -120.47322 31985 ft 440 kts 121°
2026-05-04 23:50 38.06969 -120.44098 32377 ft 441 kts 122°
2026-05-04 23:50 38.05237 -120.40865 32724 ft 444 kts 122°
2026-05-04 23:50 38.03462 -120.37647 33066 ft 446 kts 123°
2026-05-04 23:51 38.01663 -120.34434 33372 ft 449 kts 124°
2026-05-04 23:51 37.99843 -120.31188 33654 ft 452 kts 125°
2026-05-04 23:51 37.98028 -120.27938 34099 ft 451 kts 125°
2026-05-04 23:51 37.96218 -120.24693 34485 ft 450 kts 125°
2026-05-04 23:52 37.94250 -120.21600 34694 ft 453 kts 138°
2026-05-04 23:52 37.91678 -120.19298 35001 ft 452 kts 149°
2026-05-04 23:52 37.88968 -120.17293 35379 ft 451 kts 150°
2026-05-04 23:52 37.86239 -120.15315 35650 ft 452 kts 152°
2026-05-04 23:53 37.83508 -120.13337 35933 ft 453 kts 151°
2026-05-04 23:53 37.80780 -120.11345 36276 ft 452 kts 151°
2026-05-04 23:53 37.78067 -120.09349 36705 ft 449 kts 152°
2026-05-04 23:53 37.75376 -120.07358 37038 ft 449 kts 152°
2026-05-04 23:54 37.69961 -120.03339 37062 ft 455 kts 152°
2026-05-04 23:54 37.64527 -119.99302 37043 ft 449 kts 152°
2026-05-04 23:55 37.59165 -119.95326 37052 ft 447 kts 153°
2026-05-04 23:56 37.51118 -119.89377 37058 ft 447 kts 153°
2026-05-04 23:56 37.45751 -119.85420 37053 ft 447 kts 153°
2026-05-04 23:57 37.40385 -119.81466 37049 ft 447 kts 154°
2026-05-04 23:57 37.35018 -119.77520 37053 ft 447 kts 154°
2026-05-04 23:58 37.33168 -119.76163 37043 ft 446 kts 154°
2026-05-04 23:58 37.28582 -119.72801 37046 ft 446 kts 154°
2026-05-04 23:59 37.23221 -119.68870 37046 ft 445 kts 154°
2026-05-04 23:59 37.17873 -119.64956 37037 ft 444 kts 155°
2026-05-05 00:00 37.12539 -119.61156 37021 ft 440 kts 163°
2026-05-05 00:00 37.07647 -119.60023 37030 ft 423 kts 187°
2026-05-05 00:01 37.00939 -119.61226 37039 ft 418 kts 193°
2026-05-05 00:01 36.96165 -119.62250 37037 ft 417 kts 193°
2026-05-05 00:02 36.90442 -119.63445 37030 ft 416 kts 193°
2026-05-05 00:02 36.84717 -119.64599 37021 ft 415 kts 193°
2026-05-05 00:03 36.79012 -119.65731 37029 ft 414 kts 193°
2026-05-05 00:03 36.76199 -119.66287 36880 ft 417 kts 193°
2026-05-05 00:03 36.73289 -119.66862 36616 ft 417 kts 193°
2026-05-05 00:03 36.70423 -119.67427 36370 ft 416 kts 193°
2026-05-05 00:04 36.67603 -119.67982 36132 ft 416 kts 193°
2026-05-05 00:04 36.64740 -119.68546 35898 ft 417 kts 193°
2026-05-05 00:04 36.61869 -119.69111 35672 ft 418 kts 193°
2026-05-05 00:04 36.58993 -119.69677 35435 ft 418 kts 193°
2026-05-05 00:05 36.56117 -119.70242 35201 ft 419 kts 193°
2026-05-05 00:05 36.53240 -119.70807 34963 ft 418 kts 193°
2026-05-05 00:05 36.50362 -119.71372 34733 ft 417 kts 193°
2026-05-05 00:05 36.47503 -119.71932 34501 ft 416 kts 193°
2026-05-05 00:06 36.44651 -119.72490 34274 ft 414 kts 193°
2026-05-05 00:06 36.41807 -119.73046 34047 ft 413 kts 193°
2026-05-05 00:06 36.38969 -119.73601 33784 ft 412 kts 193°
2026-05-05 00:06 36.36131 -119.74157 33520 ft 412 kts 193°
2026-05-05 00:07 36.33295 -119.74712 33259 ft 413 kts 193°
2026-05-05 00:07 36.30452 -119.75268 33004 ft 413 kts 194°
2026-05-05 00:07 36.27614 -119.75822 32747 ft 412 kts 194°
2026-05-05 00:07 36.24822 -119.76366 32498 ft 412 kts 193°
2026-05-05 00:08 36.21994 -119.76917 32244 ft 411 kts 193°
2026-05-05 00:08 36.19165 -119.77467 31993 ft 410 kts 193°
2026-05-05 00:08 36.16356 -119.78013 31744 ft 407 kts 193°
2026-05-05 00:08 36.13560 -119.78555 31492 ft 404 kts 193°
2026-05-05 00:09 36.10783 -119.79094 31254 ft 404 kts 193°
2026-05-05 00:09 36.08007 -119.79634 31000 ft 402 kts 194°
2026-05-05 00:09 36.05275 -119.80160 30754 ft 392 kts 194°
2026-05-05 00:09 36.02603 -119.80674 30510 ft 386 kts 194°
2026-05-05 00:10 35.99942 -119.81191 30286 ft 388 kts 194°
2026-05-05 00:10 35.97269 -119.81711 30050 ft 389 kts 194°
2026-05-05 00:10 35.94587 -119.82233 29772 ft 390 kts 194°
2026-05-05 00:10 35.91903 -119.82754 29511 ft 390 kts 195°
2026-05-05 00:11 35.89211 -119.83277 29230 ft 392 kts 193°
2026-05-05 00:11 35.86524 -119.83797 29060 ft 390 kts 193°
2026-05-05 00:11 35.83879 -119.84303 29027 ft 378 kts 194°
2026-05-05 00:11 35.81364 -119.84779 29001 ft 361 kts 194°
2026-05-05 00:12 35.78906 -119.85244 29006 ft 344 kts 194°
2026-05-05 00:12 35.76593 -119.85684 29000 ft 328 kts 195°
2026-05-05 00:12 35.74387 -119.86105 28995 ft 314 kts 195°
2026-05-05 00:12 35.72296 -119.86506 28912 ft 302 kts 195°
2026-05-05 00:13 35.70243 -119.86902 28657 ft 296 kts 195°
2026-05-05 00:13 35.68212 -119.87297 28229 ft 296 kts 195°
2026-05-05 00:13 35.66168 -119.87696 27669 ft 299 kts 194°
2026-05-05 00:13 35.64098 -119.88101 27038 ft 305 kts 194°
2026-05-05 00:14 35.61910 -119.88530 25849 ft 325 kts 193°
2026-05-05 00:14 35.59626 -119.88978 24650 ft 348 kts 192°
2026-05-05 00:14 35.57170 -119.89455 23599 ft 364 kts 191°
2026-05-05 00:14 35.54654 -119.89936 22778 ft 367 kts 191°
2026-05-05 00:15 35.52144 -119.90410 22278 ft 362 kts 191°
2026-05-05 00:15 35.49674 -119.90877 21756 ft 357 kts 191°
2026-05-05 00:15 35.47210 -119.91344 21160 ft 356 kts 191°
2026-05-05 00:15 35.44767 -119.91809 20538 ft 355 kts 191°
2026-05-05 00:16 35.42331 -119.92273 19943 ft 354 kts 191°
2026-05-05 00:16 35.39909 -119.92735 19427 ft 351 kts 191°
2026-05-05 00:16 35.37500 -119.93197 18917 ft 348 kts 191°
2026-05-05 00:16 35.35112 -119.93652 18427 ft 346 kts 191°
2026-05-05 00:17 35.32739 -119.94102 17878 ft 343 kts 191°
2026-05-05 00:17 35.30387 -119.94549 17380 ft 340 kts 191°
2026-05-05 00:17 35.28066 -119.94989 16888 ft 335 kts 191°
2026-05-05 00:17 35.25798 -119.95419 16386 ft 332 kts 191°
2026-05-05 00:18 35.23523 -119.95852 15888 ft 329 kts 191°
2026-05-05 00:18 35.21264 -119.96281 15403 ft 327 kts 191°
2026-05-05 00:18 35.19029 -119.96705 14921 ft 324 kts 191°
2026-05-05 00:18 35.16806 -119.97128 14455 ft 321 kts 191°
2026-05-05 00:19 35.14603 -119.97544 13978 ft 319 kts 191°
2026-05-05 00:19 35.12411 -119.97958 13471 ft 317 kts 191°
2026-05-05 00:19 35.10241 -119.98369 12980 ft 314 kts 190°
2026-05-05 00:19 35.08123 -119.98773 12531 ft 310 kts 191°
2026-05-05 00:20 35.06003 -119.99175 12066 ft 307 kts 189°
2026-05-05 00:20 35.03899 -119.99572 11606 ft 304 kts 189°
2026-05-05 00:20 35.01813 -119.99967 11143 ft 302 kts 189°
2026-05-05 00:20 34.99741 -120.00358 10691 ft 300 kts 188°
2026-05-05 00:21 34.97682 -120.00747 10325 ft 296 kts 187°
2026-05-05 00:21 34.95700 -120.01121 10215 ft 282 kts 188°
2026-05-05 00:21 34.93800 -120.01483 10091 ft 270 kts 187°
2026-05-05 00:21 34.91978 -120.01827 9913 ft 262 kts 187°
2026-05-05 00:22 34.90177 -120.02165 9581 ft 259 kts 187°
2026-05-05 00:22 34.88400 -120.02499 9232 ft 258 kts 187°
2026-05-05 00:22 34.86649 -120.02828 9050 ft 257 kts 187°
2026-05-05 00:22 34.84874 -120.03161 9017 ft 260 kts 188°
2026-05-05 00:23 34.83096 -120.03495 8989 ft 254 kts 187°
2026-05-05 00:23 34.81399 -120.03815 8970 ft 240 kts 187°
2026-05-05 00:23 34.79794 -120.04116 8960 ft 226 kts 188°
2026-05-05 00:23 34.78292 -120.04399 8965 ft 212 kts 187°
2026-05-05 00:24 34.76858 -120.04668 8995 ft 207 kts 187°
2026-05-05 00:24 34.75415 -120.04938 8913 ft 212 kts 187°
2026-05-05 00:24 34.73950 -120.05212 8641 ft 214 kts 188°
2026-05-05 00:24 34.72970 -120.05395 8396 ft 217 kts 188°
2026-05-05 00:25 34.71669 -120.05639 8006 ft 224 kts 188°
2026-05-05 00:25 34.70083 -120.05936 7195 ft 246 kts 189°
2026-05-05 00:25 34.68329 -120.06265 6533 ft 261 kts 189°
2026-05-05 00:25 34.66545 -120.06599 6305 ft 255 kts 189°
2026-05-05 00:26 34.64809 -120.06924 6160 ft 251 kts 189°
2026-05-05 00:26 34.63087 -120.07247 6033 ft 251 kts 189°
2026-05-05 00:26 34.61368 -120.07568 5994 ft 248 kts 189°
2026-05-05 00:26 34.59679 -120.07884 5980 ft 241 kts 189°
2026-05-05 00:27 34.58060 -120.08187 5968 ft 230 kts 189°
2026-05-05 00:27 34.56491 -120.08480 5978 ft 226 kts 189°
2026-05-05 00:27 34.54941 -120.08770 5982 ft 225 kts 189°
2026-05-05 00:27 34.53386 -120.09060 5991 ft 227 kts 189°
2026-05-05 00:28 34.51805 -120.09158 6001 ft 227 kts 179°
2026-05-05 00:28 34.50219 -120.09100 5994 ft 229 kts 179°
2026-05-05 00:28 34.48624 -120.09043 6000 ft 230 kts 179°
2026-05-05 00:28 34.47021 -120.08996 5997 ft 230 kts 179°
2026-05-05 00:29 34.45424 -120.08955 5984 ft 226 kts 179°
2026-05-05 00:29 34.43887 -120.08934 5992 ft 215 kts 183°
2026-05-05 00:29 34.42408 -120.08969 5998 ft 211 kts 180°
2026-05-05 00:29 34.40943 -120.08931 6001 ft 210 kts 179°
2026-05-05 00:30 34.39497 -120.08882 6016 ft 211 kts 179°
2026-05-05 00:30 34.38031 -120.08826 6018 ft 211 kts 179°
2026-05-05 00:30 34.36557 -120.08769 6020 ft 212 kts 179°
2026-05-05 00:30 34.35076 -120.08712 6017 ft 213 kts 179°
2026-05-05 00:31 34.33593 -120.08657 6019 ft 214 kts 179°
2026-05-05 00:31 34.32101 -120.08601 6013 ft 214 kts 179°
2026-05-05 00:31 34.30611 -120.08542 6013 ft 215 kts 179°
2026-05-05 00:31 34.29130 -120.08352 5994 ft 215 kts 160°
2026-05-05 00:32 34.27944 -120.07304 6006 ft 213 kts 124°
2026-05-05 00:32 34.27477 -120.05655 5982 ft 213 kts 90°
2026-05-05 00:32 34.27593 -120.03883 5807 ft 212 kts 83°
2026-05-05 00:32 34.27786 -120.02118 5495 ft 214 kts 82°
2026-05-05 00:33 34.27986 -120.00331 5228 ft 214 kts 82°
2026-05-05 00:33 34.28188 -119.98539 4966 ft 214 kts 82°
2026-05-05 00:33 34.28388 -119.96743 4667 ft 216 kts 82°
2026-05-05 00:33 34.28582 -119.94946 4384 ft 216 kts 82°
2026-05-05 00:34 34.28777 -119.93145 4127 ft 216 kts 82°
2026-05-05 00:34 34.28969 -119.91343 4023 ft 218 kts 82°
2026-05-05 00:34 34.29161 -119.89515 4004 ft 220 kts 82°
2026-05-05 00:34 34.29359 -119.87710 4017 ft 209 kts 82°
2026-05-05 00:35 34.29546 -119.86028 4000 ft 195 kts 82°
2026-05-05 00:35 34.29726 -119.84410 4014 ft 193 kts 82°
2026-05-05 00:35 34.29905 -119.82813 3955 ft 197 kts 81°
2026-05-05 00:35 34.30396 -119.81251 3811 ft 197 kts 58°
2026-05-05 00:36 34.31133 -119.79893 3686 ft 196 kts 53°
2026-05-05 00:36 34.31935 -119.78551 3550 ft 193 kts 51°
2026-05-05 00:36 34.32731 -119.77256 3426 ft 191 kts 47°
2026-05-05 00:36 34.33747 -119.76282 3301 ft 188 kts 32°
2026-05-05 00:37 34.34848 -119.75439 3100 ft 184 kts 22°
2026-05-05 00:37 34.35986 -119.74808 2933 ft 175 kts 20°
2026-05-05 00:37 34.37096 -119.74201 2725 ft 175 kts 21°
2026-05-05 00:37 34.38215 -119.73686 2552 ft 168 kts
2026-05-05 00:38 34.39352 -119.73654 2410 ft 161 kts 345°
2026-05-05 00:38 34.40378 -119.74156 2255 ft 159 kts 323°
2026-05-05 00:38 34.41266 -119.74929 2101 ft 158 kts 314°
2026-05-05 00:38 34.42044 -119.75832 1874 ft 154 kts 311°
2026-05-05 00:39 34.42701 -119.76774 1711 ft 141 kts 298°
2026-05-05 00:39 34.42941 -119.77864 1431 ft 137 kts 266°
2026-05-05 00:39 34.42894 -119.79009 1097 ft 135 kts 265°
2026-05-05 00:39 34.42859 -119.80133 707 ft 133 kts 266°
2026-05-05 00:40 34.42838 -119.81222 455 ft 126 kts 267°
2026-05-05 00:40 34.42814 -119.82288 259 ft 129 kts 267°
2026-05-05 00:40 34.42794 -119.83392 62 ft 130 kts 266°
2026-05-05 00:40 34.42770 -119.84400 18 ft 97 kts 268°
2026-05-05 00:41 34.42760 -119.84952 16 ft 38 kts 269°
2026-05-05 00:41 34.42732 -119.85167 19 ft 12 kts 219°
2026-05-05 00:41 34.42682 -119.85180 17 ft 5 kts 180°
2026-05-05 00:41 34.42652 -119.85160 18 ft 5 kts 127°
2026-05-05 00:42 34.42644 -119.85120 17 ft 5 kts 90°
2026-05-05 00:42 34.42645 -119.85078 17 ft 5 kts 88°
2026-05-05 00:42 34.42646 -119.85002 19 ft 12 kts 89°
2026-05-05 00:42 34.42649 -119.84894 17 ft 14 kts 88°
2026-05-05 00:43 34.42652 -119.84772 17 ft 14 kts 88°
2026-05-05 00:43 34.42654 -119.84655 17 ft 14 kts 89°
2026-05-05 00:43 34.42657 -119.84542 17 ft 13 kts 88°
2026-05-05 00:43 34.42658 -119.84435 17 ft 13 kts 90°
2026-05-05 00:44 34.42659 -119.84329 17 ft 12 kts 90°
2026-05-05 00:44 34.42663 -119.84226 17 ft 12 kts 89°
2026-05-05 00:44 34.42665 -119.84126 17 ft 12 kts 88°
2026-05-05 00:44 34.42667 -119.84028 19 ft 11 kts 88°
2026-05-05 00:45 34.42669 -119.83933 19 ft 11 kts 89°
2026-05-05 00:45 34.42664 -119.83842 18 ft 9 kts 122°
2026-05-05 00:45 34.42606 -119.83815 17 ft 9 kts 166°
2026-05-05 00:45 34.42548 -119.83798 18 ft 8 kts 166°
2026-05-05 00:46 34.42494 -119.83782 18 ft 8 kts 166°
2026-05-05 00:46 34.42448 -119.83766 18 ft 5 kts 163°
2026-05-05 00:46 34.42413 -119.83756 18 ft 6 kts 166°
2026-05-05 00:46 34.42395 -119.83733 17 ft 3 kts 92°
2026-05-05 00:47 34.42397 -119.83712 17 ft 2 kts 82°
2026-05-05 00:47 34.42401 -119.83692 17 ft 2 kts 75°
2026-05-05 00:47 34.42402 -119.83687 19 ft 0 kts 75°